TimeCDT,TemperatureF,Dew PointF,Humidity,Sea Level PressureIn,VisibilityMPH,Wind Direction,Wind SpeedMPH,Gust SpeedMPH,PrecipitationIn,Events,Conditions,WindDirDegrees,DateUTC
12:53 AM,66.9,57.0,70,29.56,10.0,SSW,21.9,29.9,N/A,,Clear,200,2012-10-25 05:53:00
1:53 AM,64.9,57.9,78,29.60,10.0,SW,17.3,-,N/A,,Clear,220,2012-10-25 06:53:00
2:53 AM,64.0,46.9,54,29.62,10.0,SW,18.4,-,N/A,,Clear,230,2012-10-25 07:53:00
3:24 AM,60.8,35.6,39,29.83,4.0,NNW,29.9,39.1,N/A,,Haze,340,2012-10-25 08:24:00
3:35 AM,51.8,42.8,71,29.85,8.0,North,20.7,35.7,N/A,,Partly Cloudy,350,2012-10-25 08:35:00
3:53 AM,51.1,44.1,77,29.73,10.0,NNW,23.0,28.8,N/A,,Clear,340,2012-10-25 08:53:00
4:53 AM,52.0,45.0,77,29.75,10.0,North,23.0,31.1,N/A,,Mostly Cloudy,350,2012-10-25 09:53:00
5:00 AM,51.8,44.6,76,29.89,10.0,North,27.6,35.7,N/A,,Mostly Cloudy,350,2012-10-25 10:00:00
5:19 AM,51.8,44.6,76,29.91,10.0,North,23.0,34.5,N/A,,Overcast,350,2012-10-25 10:19:00
5:53 AM,51.1,44.1,77,29.82,10.0,North,25.3,32.2,N/A,,Overcast,350,2012-10-25 10:53:00
6:24 AM,48.2,44.6,87,29.97,10.0,North,27.6,35.7,N/A,,Overcast,10,2012-10-25 11:24:00
6:53 AM,46.0,41.0,83,29.88,10.0,North,27.6,36.8,N/A,,Overcast,360,2012-10-25 11:53:00
7:28 AM,42.8,39.2,87,30.02,10.0,North,28.8,39.1,N/A,,Overcast,350,2012-10-25 12:28:00
7:53 AM,42.1,37.0,82,29.97,10.0,North,26.5,35.7,N/A,,Overcast,350,2012-10-25 12:53:00
8:07 AM,41.0,35.6,81,30.05,10.0,North,21.9,31.1,N/A,,Mostly Cloudy,350,2012-10-25 13:07:00
8:15 AM,41.0,32.0,70,30.06,10.0,North,28.8,35.7,N/A,,Scattered Clouds,350,2012-10-25 13:15:00
9:53 AM,39.9,30.0,68,30.06,10.0,North,32.2,44.9,N/A,,Scattered Clouds,350,2012-10-25 14:53:00
10:03 AM,39.2,30.2,70,30.12,10.0,North,27.6,36.8,N/A,,Mostly Cloudy,350,2012-10-25 15:03:00
10:53 AM,41.0,30.9,67,30.09,10.0,North,29.9,36.8,N/A,,Overcast,350,2012-10-25 15:53:00
11:38 AM,44.6,30.2,57,30.17,10.0,North,24.2,34.5,N/A,,Scattered Clouds,10,2012-10-25 16:38:00
11:53 AM,45.0,30.0,56,30.11,10.0,North,26.5,33.4,N/A,,Scattered Clouds,10,2012-10-25 16:53:00
12:53 PM,46.9,30.9,54,30.11,10.0,North,20.7,27.6,N/A,,Scattered Clouds,10,2012-10-25 17:53:00
1:03 PM,46.4,30.2,53,30.18,10.0,North,19.6,31.1,N/A,,Mostly Cloudy,360,2012-10-25 18:03:00
1:20 PM,46.4,30.2,53,30.17,10.0,North,23.0,31.1,N/A,,Scattered Clouds,360,2012-10-25 18:20:00
1:53 PM,48.0,30.0,50,30.09,10.0,North,21.9,29.9,N/A,,Clear,350,2012-10-25 18:53:00
2:53 PM,50.0,30.0,46,30.06,10.0,NNE,17.3,26.5,N/A,,Clear,20,2012-10-25 19:53:00
3:53 PM,50.0,28.9,44,30.08,10.0,North,20.7,27.6,N/A,,Clear,10,2012-10-25 20:53:00
4:53 PM,51.1,28.9,43,30.09,10.0,North,19.6,24.2,N/A,,Clear,10,2012-10-25 21:53:00
5:53 PM,48.0,28.0,46,30.11,10.0,NNE,16.1,23.0,N/A,,Clear,20,2012-10-25 22:53:00
6:53 PM,45.0,28.9,53,30.15,10.0,NNE,12.7,-,N/A,,Clear,30,2012-10-25 23:53:00
7:53 PM,41.0,28.0,60,30.19,10.0,NNE,10.4,-,N/A,,Clear,30,2012-10-26 00:53:00
8:53 PM,37.9,28.0,68,30.22,10.0,NNE,9.2,-,N/A,,Clear,30,2012-10-26 01:53:00
9:53 PM,36.0,28.0,73,30.25,10.0,NE,10.4,-,N/A,,Clear,40,2012-10-26 02:53:00
10:53 PM,35.1,27.0,72,30.28,10.0,NNE,9.2,-,N/A,,Clear,30,2012-10-26 03:53:00
11:53 PM,34.0,27.0,75,30.28,10.0,NE,9.2,-,N/A,,Clear,40,2012-10-26 04:53:00